CZ-4 DEB, 26140

Orbit data source: Space-Track

CZ-4 DEB, 26140 is space debris in SSO originally from a launch on Thu, 14 Oct 1999 UTC launched from the Taiyaun Space Center, China (TSC). Debris objects in space refer to the collection of defunct objects orbiting the Earth. Examples of debris include non-operational satellites, rocket bodies, and fragments generated from explosions, collisions, or faulty payload assembly.

Loading next visibility...
Identifier
26140, 1999-057AC
Orbit
SSO
Country
Flag of CNCN / PRC
Related business
Manufacturer
Unknown
Mission
Spacecraft
Bus & Motor
Unknown
Mass
Unknown
Launch date (UTC)
1999-10-14 (26 years ago)
Launch vehicle
Unknown
Launch site
Taiyaun Space Center, China (TSC)
Object type
Payload
Rocket body
Debris
Shape & HBR
Unknown
Radar Cross Section
Small (<0.1 m²)

Expand to show TLE details & history
Last TLE update: 16 hours ago

TLE from 16 hours ago
0 CZ-4 DEB
1 26140U 99057AC  25260.78203200  .00005638  00000-0  99784-3 0  9992
2 26140  99.3397 158.2219 0144234  31.7489   9.0458 14.61215359334174
Epoch: 2025-09-17T18:46Z
TLE epoch observation values (Epoch: 2025-09-17T18:46:07.564Z)
Latitude
40.49065°
Longitude
-128.29053°
Altitude
594.383 km
Speed
7.62 km/s
True Right ascension
10h 00m 46s
True Declination
40° 19' 01"
Sunlit
Object was in daylight at epoch
Visualization orbit readout
Latitude
Unknown
Longitude
Unknown
Altitude
Unknown
Speed
Unknown
Apparent Right ascension
Unknown
Apparent Declination
Unknown
Sunlit
N/A
Visualization observer readout
Local Sidereal Time
03:21:50
Azimuth
Unknown
Elevation
Unknown
Doppler factor
Unknown
Orbital elements
Apogee altitude
788.282 km
Perigee altitude
584.493 km
Semi-major axis
7,064.524 km
Eccentricity
0.01442
Inclination
99.3397°
RAAN
158.2219°
Arg. of periapsis
31.7489°
True anomaly
9.31037°
Mean anomaly
9.0458°
Eccentric anomaly
9.17761°
Mean motion
3.65526 °/min
Orbital period
98.49 mins
BSTAR
0.00099784
Loading maneuver chart data...
Computing Atmospheric mass density...
Loading historical data...
Loading historical data...
Loading historical data...
Loading historical data...
Loading historical data...
Loading historical data...
Loading historical data...

Documentation

Showing up to 5 results
|